Terminal Aerodrome Forecast
Issued by NWS

Home | Current Version | Previous Version | Graphics & Text | Print | Product List | Glossary On
Versions: 1 2 3 4 5 6 7 8 9 10 11 12 13 14 15 16 17 18 19 20 21 22 23 24 25 26 27 28 29
000
FTUS45 KGGW 111128
TAFOLF
TAF
KOLF 111128Z 1112/1212 06010KT 2SM -SN OVC010
     FM111800 05008KT P6SM VCSH OVC008
     FM112000 02006KT P6SM OVC015
     FM120300 04006KT P6SM OVC020=

USA.gov is the U.S. government's official web portal to all federal, state and local government web resources and services.